Track ONEWEB-0304 now! 10-day predictions ONEWEB-0304 is classified as:
1 49092U 21075T 24325.85027104 -.00000250 00000-0 -67608-3 0 9991 2 49092 87.9074 120.0822 0001529 102.1561 257.9742 13.17650643158072